Theta_e
288 288 289 288 288 288 287 288 288 289 290 289 289 289 290 292 295 297 300 300 302 305 306 308 311 315 332 333 333 330 330 328 328 322 322 322 325 327 328 329 329 328 329
286 287 288 288 287 287 287 287 288 289 290 290 290 291 291 292 294 295 296 299 301 303 304 306 309 312 315 330 333 328 330 329 327 323 320 316 320 323 327 328 327 327 328
285 285 286 286 287 286 285 286 288 289 290 290 290 290 291 291 292 292 294 296 299 302 302 304 307 310 314 319 329 331 330 327 327 327 322 314 314 319 321 326 327 326 325
285 284 285 285 285 285 286 286 288 288 289 290 289 287 287 287 290 291 293 294 297 300 301 302 304 307 312 319 327 329 329 329 324 326 327 322 320 317 314 318 325 326 324
285 283 283 284 285 284 284 286 288 288 288 288 288 287 287 289 289 291 291 293 296 297 299 302 303 307 311 316 324 325 324 324 322 324 325 325 318 317 316 315 317 322 325
284 284 284 284 283 283 284 286 286 287 287 288 288 287 286 287 287 288 289 291 293 295 297 300 300 304 307 311 319 325 325 324 324 322 324 324 321 317 314 312 315 319 322
283 283 281 281 281 281 284 285 285 285 286 286 287 287 287 287 288 288 288 289 290 292 293 296 298 301 305 307 310 315 323 323 321 319 318 321 325 325 322 316 314 315 318
282 283 281 280 280 280 283 284 284 285 285 285 286 287 287 288 288 288 288 289 289 290 293 295 295 297 299 299 303 310 320 322 322 320 321 319 322 326 326 322 318 312 313
281 281 280 280 279 279 282 283 284 285 285 286 286 286 287 286 286 287 288 288 289 290 290 290 291 293 294 295 299 305 313 320 321 321 320 319 320 322 328 326 324 319 311
280 280 278 278 279 279 281 282 285 284 285 286 286 286 286 286 286 286 285 286 287 288 288 288 288 289 290 292 295 300 310 317 321 322 320 320 320 323 325 327 325 324 320
276 276 274 276 277 277 279 281 282 284 284 285 285 285 285 285 285 284 284 285 286 285 285 286 286 286 287 288 290 293 298 309 318 319 319 318 318 318 325 327 325 323 323
273 274 275 274 274 275 277 278 280 282 284 285 285 285 284 284 283 283 284 284 283 284 284 284 285 285 286 287 288 289 294 298 306 316 315 316 318 317 320 324 324 323 322
274 271 273 273 274 274 276 277 279 281 283 284 284 283 282 282 282 282 283 283 282 282 282 282 283 284 284 284 286 288 292 295 297 300 302 311 316 317 321 324 324 323 322
275 273 279 273 273 274 275 277 278 282 282 282 282 282 280 281 280 281 281 281 282 281 280 281 282 283 283 284 284 285 288 292 293 292 290 290 290 291 306 312 321 321 321
278 274 276 272 274 275 275 278 279 280 281 281 281 281 281 280 280 280 280 280 280 280 280 279 280 281 282 283 283 283 284 284 288 289 288 289 289 289 289 293 295 303 315
278 279 278 278 278 277 277 278 279 280 280 280 280 281 280 280 278 278 279 279 279 279 279 278 279 278 281 283 284 283 281 281 282 283 285 286 287 288 288 289 290 291 296
278 278 277 278 277 276 277 277 278 279 279 280 280 280 280 278 278 277 277 278 278 278 278 277 278 277 280 283 282 282 280 279 278 280 281 282 284 285 287 287 287 288 287
278 278 276 277 276 276 277 277 278 278 278 278 279 279 279 277 277 276 276 276 277 277 277 277 278 277 279 282 281 280 279 278 277 277 280 280 281 282 284 285 285 285 285
277 276 277 276 275 275 276 276 277 276 276 277 277 278 279 276 276 275 275 276 276 276 276 276 276 277 277 281 281 277 277 276 276 276 277 279 279 282 282 281 281 282 281
276 275 275 274 274 273 275 274 274 274 273 275 276 277 278 275 274 274 274 275 276 276 276 276 276 277 276 280 280 278 275 275 275 275 276 279 278 280 280 278 278 276 277
275 276 274 272 272 273 272 273 274 272 272 273 276 276 276 277 274 274 274 274 274 274 273 274 274 274 276 277 279 278 275 273 273 273 273 275 278 278 278 278 277 276 278
274 274 272 272 273 272 270 273 274 271 271 270 270 271 271 274 274 272 272 273 273 272 271 271 272 273 274 276 276 277 276 274 272 270 272 273 276 275 276 275 276 276 276
271 272 270 272 272 272 270 273 273 273 271 269 267 268 268 269 269 267 268 271 271 270 269 269 269 270 272 273 275 274 274 273 269 271 272 273 273 272 271 274 274 273 273
267 267 269 267 268 272 274 273 275 276 275 271 269 269 266 268 266 268 267 269 270 270 269 268 267 268 270 271 271 271 269 270 268 267 268 268 270 268 268 269 269 270 271
272 269 266 266 267 271 273 273 274 275 275 274 273 272 271 266 266 265 268 267 270 272 270 269 266 269 268 270 273 272 269 268 267 265 265 264 264 264 265 266 267 268 268
273 271 271 271 270 271 271 272 274 274 273 273 272 270 270 268 266 263 264 271 273 274 274 274 272 265 273 274 273 272 271 270 267 263 261 260 260 261 261 262 263 265 265
Wind_Speed
6 7 8 8 9 10 12 13 15 16 13 13 14 12 13 12 10 10 14 16 13 14 15 12 13 13 12 11 12 15 12 10 9 4 3 4 5 7 7 7 7 9 11
9 11 10 8 8 10 12 14 15 16 13 12 12 11 12 10 12 13 14 14 16 16 15 16 13 14 12 15 14 17 15 12 11 9 4 6 6 7 10 8 8 11 8
8 12 11 10 11 15 16 15 15 15 13 15 11 11 10 11 8 12 13 14 16 16 18 17 15 14 12 11 12 13 15 13 12 17 7 4 7 5 4 13 11 11 9
5 10 12 14 15 13 11 12 15 15 13 15 13 17 12 14 11 12 12 15 18 17 17 17 15 15 12 14 12 10 13 11 6 5 11 3 4 6 4 2 9 11 11
7 10 13 13 12 13 12 14 15 16 16 17 14 11 13 12 14 12 17 16 13 16 17 15 17 16 11 14 13 10 11 11 11 10 9 15 4 3 3 8 5 6 10
6 7 9 11 12 11 13 14 16 16 17 15 15 15 16 17 15 16 13 12 12 12 16 16 16 17 15 15 13 11 13 10 13 15 13 9 11 8 5 2 4 12 8
5 7 9 10 11 12 15 13 14 15 17 17 15 15 15 16 17 16 13 16 12 12 15 18 16 14 15 16 15 15 11 11 13 16 17 14 12 11 11 5 3 4 4
5 6 7 7 8 10 12 13 14 15 16 18 16 14 14 9 11 13 13 11 12 13 17 16 16 16 15 15 16 13 12 12 12 19 17 13 9 11 12 13 10 3 3
4 6 6 7 8 9 11 11 13 13 14 15 13 14 12 15 13 15 14 11 13 13 16 16 18 16 15 17 15 12 14 13 12 15 18 15 14 16 19 14 11 12 8
4 5 5 7 7 7 8 8 11 12 14 14 13 13 13 13 14 13 17 16 14 15 15 17 17 18 18 17 17 13 15 15 11 10 15 17 13 13 12 9 10 12 13
1 2 4 5 6 6 8 10 10 11 12 12 14 14 15 15 14 12 15 16 16 16 16 15 15 17 19 19 16 16 16 17 15 12 14 18 17 11 8 9 10 12 11
2 2 5 5 6 7 7 8 9 11 12 11 12 14 15 15 15 15 16 16 16 16 17 17 18 18 18 19 18 18 16 15 13 14 13 14 10 18 14 11 13 13 14
3 4 6 6 7 6 6 7 9 13 11 11 12 13 13 13 15 15 16 16 18 19 18 19 18 18 18 20 21 18 17 16 10 8 8 6 11 16 14 16 15 13 11
1 1 7 5 6 6 6 8 9 12 11 11 13 14 13 12 12 13 13 14 15 16 17 17 17 18 19 20 21 21 18 14 13 13 13 13 12 10 9 5 12 13 12
3 3 4 5 5 7 7 8 10 12 11 13 13 14 13 11 12 13 13 13 14 14 16 18 19 19 20 17 20 21 21 20 15 14 13 12 14 18 17 7 7 4 8
3 5 5 7 9 8 8 9 12 13 11 13 13 14 14 13 14 14 14 14 15 16 16 19 20 21 16 35 32 23 18 19 19 17 15 13 18 14 17 19 16 12 5
3 5 5 7 6 7 8 9 9 10 11 12 13 14 13 15 16 15 16 17 17 16 17 17 18 18 20 36 31 28 14 16 18 18 15 15 15 16 10 14 16 17 21
4 6 5 4 5 5 7 8 9 10 11 12 13 13 14 14 15 16 16 16 15 16 15 17 18 17 18 33 31 26 14 13 16 18 18 15 17 20 14 9 10 10 12
5 5 4 2 4 7 7 7 9 9 10 13 13 13 13 14 14 15 16 15 14 14 14 15 18 19 18 35 32 20 12 13 14 14 16 17 16 27 23 14 11 9 11
6 5 4 3 5 6 6 7 8 9 10 10 11 11 11 13 14 13 13 13 12 12 12 14 14 21 17 30 32 25 12 14 13 13 15 29 25 31 31 15 14 14 13
7 5 5 4 4 5 6 8 9 9 7 8 9 10 11 8 13 12 10 12 12 12 13 14 13 15 19 19 32 31 14 12 11 12 15 16 33 33 30 28 19 18 12
6 5 5 4 4 5 5 8 9 6 5 6 7 8 8 9 8 11 11 12 12 12 12 12 12 12 14 26 27 30 27 22 11 13 11 14 28 28 30 22 31 28 15
5 4 5 4 4 5 4 8 6 4 5 6 6 6 6 7 7 6 9 9 11 10 11 11 11 12 12 12 28 28 27 25 12 11 19 24 24 24 17 29 29 19 13
5 3 5 4 4 4 6 3 6 6 5 5 5 5 6 7 7 6 5 7 8 8 8 10 10 10 12 13 12 13 13 20 15 13 10 11 11 12 13 12 14 10 9
5 4 4 3 3 3 4 4 5 5 5 6 7 6 5 5 6 5 6 4 8 12 8 6 6 9 9 12 17 17 12 11 12 8 6 9 10 12 12 11 11 10 10
6 5 4 4 2 3 4 4 4 3 4 5 5 4 4 4 4 4 5 13 13 18 20 20 12 5 19 23 22 19 21 22 12 7 9 10 10 12 12 12 12 11 13
Wind_Direction
345 359 5 357 355 2 3 3 358 360 358 359 352 350 343 335 329 327 326 327 316 313 316 306 305 309 275 232 248 218 240 218 200 188 237 237 218 219 212 219 214 210 207
360 1 359 356 359 3 10 8 3 1 360 357 346 341 332 331 328 332 322 320 319 315 317 310 304 305 302 279 224 208 211 209 194 200 174 211 232 223 218 213 216 216 208
357 355 349 352 2 13 7 4 359 358 358 356 344 341 329 333 330 331 328 320 318 316 314 307 301 295 293 285 258 224 225 209 191 207 163 172 215 200 181 215 220 218 207
13 357 354 3 7 6 0 360 1 355 358 352 348 350 342 334 327 323 320 320 318 313 315 305 298 293 292 282 274 236 228 222 216 219 224 231 147 189 193 195 216 215 209
28 9 0 358 358 358 358 359 358 358 359 356 350 343 335 334 330 326 322 316 314 311 309 313 313 303 299 295 282 237 220 220 225 220 228 227 193 269 172 208 184 212 219
26 25 355 358 353 354 359 357 358 358 357 354 349 345 345 337 331 332 324 322 322 320 319 319 313 303 304 304 299 265 224 208 213 219 236 240 210 205 207 149 185 212 202
19 19 2 357 351 355 1 0 354 355 355 357 350 346 348 334 323 327 325 328 329 328 320 321 314 304 309 307 305 299 248 215 209 210 223 226 251 232 222 206 178 193 194
18 27 7 351 346 351 356 355 352 354 355 358 351 346 344 334 325 327 327 328 329 324 329 329 332 329 322 313 307 290 275 232 209 212 220 214 235 255 237 219 205 188 197
14 41 8 352 347 350 343 347 350 354 354 354 351 348 347 342 335 332 332 334 330 334 335 339 337 340 334 322 303 293 281 250 218 213 214 215 219 217 232 224 208 206 190
38 38 3 350 344 339 327 342 349 356 349 351 352 348 348 344 339 340 343 342 338 341 342 343 346 346 343 339 329 318 291 268 244 221 216 220 212 212 227 231 213 219 221
0 25 345 341 329 310 339 345 346 351 351 355 354 351 354 350 347 349 346 347 348 349 348 348 350 355 348 346 340 330 315 296 254 236 229 221 220 221 203 212 214 218 210
47 28 4 343 332 336 340 338 344 352 350 348 355 357 353 353 352 353 355 351 351 352 351 350 353 359 1 353 353 340 327 310 283 257 239 245 230 230 223 218 227 215 210
35 11 11 356 331 333 332 339 349 0 348 352 2 357 356 354 353 352 354 350 357 359 356 355 356 357 0 3 358 351 343 334 350 6 17 278 224 230 218 213 210 211 211
56 3 19 351 336 328 336 350 353 1 351 359 5 360 358 352 351 352 355 350 353 0 359 354 355 4 3 8 9 359 359 358 348 43 34 40 39 31 277 218 216 198 203
54 52 35 338 336 346 344 348 358 1 357 5 5 2 356 354 356 357 357 355 359 4 1 358 4 5 11 8 14 12 7 8 3 2 39 31 47 47 38 21 44 357 200
60 42 36 9 5 348 352 357 4 1 360 8 6 1 359 357 1 360 360 1 3 7 11 7 6 7 12 13 13 24 12 10 13 4 360 15 19 29 47 50 34 36 22
118 85 44 15 353 352 355 359 351 353 9 8 6 3 357 359 1 1 1 5 6 5 14 9 12 10 13 16 14 17 21 16 8 11 3 7 8 8 10 51 51 30 40
126 84 56 19 348 350 3 0 4 8 11 13 10 5 2 5 3 3 4 2 2 7 8 9 10 11 14 19 18 13 20 21 16 6 13 6 12 12 1 22 47 55 31
110 96 93 47 10 10 3 12 14 12 11 15 13 10 5 7 7 7 0 358 1 7 9 10 6 13 9 17 20 25 13 21 22 12 4 15 19 17 24 38 34 45 39
109 103 83 43 33 8 17 31 17 14 9 2 9 13 11 17 9 4 1 360 2 8 5 13 14 14 10 13 22 24 10 16 23 18 17 19 23 21 26 30 32 30 9
114 102 79 62 34 22 31 46 25 16 348 358 11 19 11 23 9 3 1 6 8 10 12 10 11 15 13 12 20 24 24 18 22 15 9 11 17 20 23 30 27 21 4
108 100 90 61 28 29 50 47 28 333 355 2 12 13 14 18 17 8 1 7 10 14 13 10 12 10 12 14 17 22 28 24 23 23 11 9 15 22 21 29 24 15 11
114 98 107 82 37 26 63 42 354 352 4 14 12 11 8 15 4 4 7 8 10 17 13 10 7 6 5 10 13 16 19 22 20 22 14 12 13 14 11 25 25 14 8
123 117 105 72 40 19 42 18 11 2 19 19 16 18 9 21 6 360 3 12 16 14 19 16 7 7 4 5 8 10 12 15 15 4 356 350 356 17 25 20 22 15 2
130 122 116 95 25 5 37 23 13 5 32 42 38 28 25 7 6 4 2 23 8 27 14 22 14 7 14 12 16 18 16 11 9 358 2 11 12 16 17 15 15 5 0
143 132 126 111 53 35 30 8 357 35 48 51 39 23 29 21 14 8 357 16 27 27 28 22 26 13 23 19 17 21 25 27 16 19 22 17 11 14 7 5 359 1 4